www.pogodaiklimat.ru
Время
(UTC), дата
12:53 13.12
13:05 13.12
13:19 13.12
13:50 13.12
13:53 13.12
14:26 13.12
14:53 13.12
14:56 13.12
16:53 13.12
17:53 13.12
18:50 13.12
18:53 13.12
19:53 13.12
20:40 13.12
20:53 13.12
21:53 13.12
22:29 13.12
22:53 13.12
23:53 13.12
00:22 13.12
00:53 13.12
01:53 13.12
02:53 13.12
03:37 13.12
03:53 13.12
04:53 14.12
05:53 14.12
06:24 14.12
06:30 14.12
06:45 14.12
06:53 14.12
07:03 14.12
07:53 14.12
08:21 14.12
08:38 14.12
08:53 14.12
09:53 14.12
10:53 14.12
11:31 14.12
11:53 14.12
11:55 14.12
12:53 14.12
13:53 14.12
14:53 14.12
15:24 14.12
15:53 14.12
16:51 14.12
16:53 14.12
Ветер
(напр.,м/с)
Видим. Явления Облачность Т
(С)
Тd
(С)
f
(%)
Тe
(С)
Тes
(С)
Комфортность P
(гПа)
Po
(гПа)
Тmin
(С)
Tmax
(С)
R
(мм)
R24
(мм)
S
(см)
С 4 10 км дымка 10/10 180 м +8.9 +7.8 93 +6 +6 1019.1 1017.4
С 4 3 км дождь, дымка 10/10 120 м +8.3 +7.8 97 +4 +4 1017.4
С 3 5 км слабый дождь, дымка 10/10 120 м +8.3 +7.8 97 +5 +5 1017.4
С 3 4 км дождь, дымка 10/10 120 м +8.0 +8.0 100 +5 +5 1017.7
С 3 4 км сильный дождь, дымка 10/10 120 м +8.3 +7.8 97 +5 +5 1019.6 1017.7
С 3 5 км дождь, дымка 10/10 120 м +8.3 +7.8 97 +5 +5 1017.0
С 4 5 км дождь, дымка 10/10 120 м +8.3 +7.8 97 +5 +5 1018.5 1016.7
С 4 2 км сильный дождь, дымка 10/10 120 м +8.3 +7.8 97 +5 +5 1016.4
С 1 4 км слабый дождь, дымка 10/10 90 м +10.0 +10.0 100 +9 +9 1014.4 1012.6 +8.3 +10.0
С 3 4 км слабый дождь, дымка 10/10 90 м +10.0 +9.4 96 +7 +7 1013.5 1011.6
С 3 2 км дождь, дымка 10/10 90 м +10.0 +9.0 93 +7 +7 1010.6
С 3 2 км слабый дождь, дымка 10/10 90 м +10.0 +9.4 96 +7 +7 1012.4 1010.6
С 2 5 км дымка 10/10 90 м +10.0 +9.4 96 +8 +8 1012.2 1010.3
СЗ 1 1 км дымка 10/10 90 м +10.0 +9.4 96 +9 +9 1010.3
СЗ 2 1 км дымка 10/10 90 м +10.0 +9.4 96 +8 +8 1012.1 1010.3
СЗ 3 1 км слабый дождь, дымка 10/10 90 м +9.4 +8.9 97 +7 +7 1011.8 1009.9
С 3 4 км слабый дождь, дымка 10/10 180 м +9.4 +8.9 97 +7 +7 1009.3
СЗ 3 8 км дымка 10/10 180 м +9.4 +8.9 97 +7 +7 1011.1 1009.3 +9.4 +10.6
СЗ 2 11 км 10/10 150 м +9.4 +8.3 93 +7 +7 1010.8 1008.9
СЗ 2 11 км 10/10 120 м +9.4 +8.3 93 +7 +7 1008.6
СЗ 3 3 км дымка 10/10 90 м +9.4 +8.9 97 +7 +7 1010.2 1008.6
0 3 км дымка 10/10 60 м +8.9 +8.3 96 +8 +8 1008.7 1006.9
0 3 км дымка 10/10 120 м +9.4 +8.3 93 +9 +9 1007.7 1005.9
В 2 400 м туман ?/? +9.4 +8.9 97 +7 +7 1004.5
0 800 м туман ?/? +9.4 +9.4 100 +8 +8 1006.5 1004.9
Ю 3 1 км дымка ?/? +9.4 +9.4 100 +7 +7 1006.3 1004.5 +8.9 +9.4
нст 1 800 м туман ?/? +10.0 +10.0 100 +9 +9 1005.3 1003.5
СЗ 4 2 км слабый дождь, дымка 10/10 60 м +9.4 +9.4 100 +6 +6 1004.2
СЗ 4 5 км дождь, дымка 10/10 60 м +9.4 +9.4 100 +6 +6 1003.9
СЗ 2 8 км слабый дождь, дымка 10/10 60 м +9.4 +9.4 100 +7 +7 1003.9
З 2 6 км слабый дождь, дымка 10/10 120 м +9.4 +9.4 100 +7 +7 1006.0 1004.2
0 16 км слабый дождь 10/10 480 м +10.0 +9.4 96 +9 +9 1004.2
нст 1 16 км слабый дождь 10/10 630 м +10.0 +10.0 100 +9 +9 1005.4 1003.5
СЗ 2 16 км 10/10 210 м +10.0 +10.0 100 +8 +8 1003.5
СЗ 4 10 км дождь, дымка 10/10 120 м +10.0 +9.4 96 +7 +7 1003.2
СЗ 2 11 км слабый дождь 10/10 120 м +10.0 +10.0 100 +8 +8 1004.5 1002.8
0 16 км 8/8 120 м
[средняя]
+10.6 +10.0 96 +10 +10 1003.6 1001.8
З 6 16 км 8/8 90 м +10.6 +9.4 92 +7 +7 1004.8 1003.2 +9.4 +10.6 22.6
З 4 10 км дымка 10/10 90 м +10.6 +10.6 100 +7 +7 1003.5
З 5 6 км дымка 10/10 150 м +11.1 +10.6 97 +8 +8 1005.6 1003.9
З 6 4 км дымка 10/10 150 м +11.1 +10.6 97 +8 +8 1003.9
З 6 16 км 10/10 180 м +10.6 +9.4 92 +7 +7 1006.5 1004.5
З 8 16 км 10/10 210 м +10.6 +9.4 92 +6 +6 1007.2 1005.5
З 7 16 км 10/10 240 м +10.0 +8.9 93 +6 +6 1007.7 1005.9
З 8
{12}
16 км 10/10 240 м +10.6 +8.9 89 +6 +6 1005.9
З 7 16 км 8/8 240 м +11.7 +8.3 80 +8 +9 1007.5 1005.9
З 6 16 км 5/5 300 м +14.0 +8.0 67 +12 +13 1004.5
З 7 16 км 5/5 300 м +14.4 +8.3 67 +12 +13 1006.3 1004.5 +10.0 +14.4
Местоположение метеостанции Savannah International Airport: широта 32.1189 долгота -81.2022 высота над уровнем моря 15 м.
В архиве по умолчанию представлена погода в Саванне за последние 1-2 суток. Обновление информации о фактической погоде в базе происходит ежечасно! Архивные данные за месяц целиком и за предыдущие месяцы Вы можете получить, выбрав интересующий диапазон дат из раскрывающегося списка и нажав кнопку "Ввод!".
Внимание! Архив погоды МЕТАР в базе сайта по станциям, не включенным в климатический монитор, хранится не более 60 дней. Нет смысла пытаться выбрать более раннюю дату.
*Определитесь, кто Вы:
Внимание! Время в таблицах - всемирное. Для получения местного времени необходимо прибавить поправку, которая равна ч.
Смотрите также архив погоды в соседних городах и на ближайших метеорологических станциях:
Партнеры нашего сайта:      
Пояснения к столбцам:
  • Ветер - указаны скорость ветра в м/с - средняя за 10 мин, порывы в срок и между сроками (в фигурных скобках) и направление, откуда дует ветер: С - северный,
  • СВ - северо-восточный, В - восточный, ЮВ - юго-восточный, Ю - южный, ЮЗ - юго-западный, З - западный, СЗ - северо-западный.
  • Видимость - горизонтальная дальность видимости в метрах или километрах. При видимости от 1 до 10 км при отсутствии осадков обычно наблюдается дымка, при ухудшении видимости до 1 км и менее - туман. В сухую погоду видимость может ухудшаться дымом, пылью или мглою.
  • Явления - указаны атмосферные явления, наблюдавшиеся в срок или в последний час перед сроком; фигурными скобками обозначены явления, наблюдавшиеся между сроками (за 1-3 часа до срока); квадратными скобками обозначены град или гололедные отложения с указанием их диаметра в мм.
  • Облачность - указаны через наклонную черту общая и нижняя облачность в баллах и высота нижней границы облаков в метрах; квадратными скобками обозначены формы облаков: Ci - перистые, Cs - перисто-слоистые, Cc - перисто-кучевые, Ac - высококучевые, As - высокослоистые, Sc - слоисто-кучевые, Ns - слоисто-дождевые, Cu - кучевые, Cb - кучево-дождевые. Подробнее классификацию облаков см. в Атласе облаков (PDF).
  • T - Температура воздуха - температура, измеренная на высоте 2 м над землей.
  • Td - Температура точки росы - температура, при понижении до которой содержащийся в воздухе водяной пар достигнет насыщения.
  • f - Относительная влажность воздуха - влажноcть воздуха, измеренная на высоте 2 м над землей.
  • Te - Эффективная температура - температура, которую ощущает одетый по сезону человек в тени. Характеристика душности погоды. При расчете учитывается влияние влажности воздуха и скорости ветра на теплоощущения человека.
  • Tes - Эффективная температура на солнце - температура, которую ощущает человек, с поправкой на солнечный нагрев. Характеристика знойности погоды. Зависит от высоты солнца над горизонтом, облачности и скорости ветра. Ночью, в пасмурную погоду, а также при ветре 12 м/с и более поправка равна нулю.
  • P - Атмосферное давление - приведенное к уровню моря атмосферное давление.
  • Po - Атмосферное давление - измеренное на уровне метеостанции атмосферное давление.
  • Tmin - Минимальная температура - минимум температуры воздуха на высоте 2 м над землей.
  • Tmax - Максимальная температура - максимум температуры воздуха на высоте 2 м над землей.
  • R - Количество осадков - Количество выпавших осадков за период времени, мм. При наведении курсора мыши на число - период времени, за который выпало указанное количество осадков.
  • R24 - Количество осадков - Количество выпавших осадков за 24 часа, мм.
  • S - Снежный покров - Высота снежного покрова, см. При наведении курсора мыши на число - состояние снежного покрова и степень покрытия местности в баллах.